Location: �couen
(49.0206°N, 2.3831°E)
Time: 19:59:15
(UTC+00:00)

Cosmos 2227 - Pass Details

Date: 29 May 2022
Orbit: 833 x 863 km, 71.0° (Epoch: 25 June)

Event Time Altitude Azimuth Distance (km) Brightness Sun altitude
Rises 20:15:24 0° 333° (NNW) 3,445 8.9 -4.9°
Reaches altitude 10° 20:17:55 10° 337° (NNW) 2,508 7.9 -5.2°
Maximum altitude 20:23:37 61° 57° (ENE) 981 4.5 -5.9°
Drops below altitude 10° 20:29:19 10° 138° (SE) 2,498 6.0 -6.6°
Enters shadow 20:29:48 - 139° (SE) 2,676 6.1 -6.7°
